Weather in Sushilovo

Russia / Novgorod Oblast     58˚25′02″N   33˚37′06″E
temp.,
°C
wind,
m/s
gust,
m/s
humid.,
%
clouds,
%
prec.,
mm/h
press.,
hPa
HPBL,
m
17 january, sun
sun1700:00−19˚nnw259244 0.0 1016160
03:00−20˚nnw249323 0.0 101699
06:00−20˚nw249632 0.0 1017108
09:00−19˚nw249723 0.0 101795
12:00−15˚wnw139149 0.0 1018140
15:00−13˚w149267 0.0 1018212
18:00−15˚wsw249660 0.0 101896
21:00−15˚wsw259672 0.1 1017158
18 january, mon
mon1800:00−13˚wsw259598 0.3 1017223
03:00−13˚wsw259596 0.6 1017179
06:00−12˚wsw249699 0.1 1016138
09:00−12˚wsw239693 0.3 101793
12:00−10˚wsw139292 0.1 1017167
15:00−9˚wsw129294 0.2 1017190
18:00−12˚w129666 0.0 101720
21:00−13˚wsw119771 0.0 101720
19 january, tue
tue1900:00−12˚wsw129695 0.1 101727
03:00−13˚w119668 0.1 101720
06:00−13˚wsw119774 0.0 101620
09:00−13˚wsw129782 0.1 101721
12:00−10˚wsw129290 0.1 1017133
15:00−9˚w139492 0.1 1017170
18:00−13˚wsw129652 0.0 101721
21:00−14˚wsw229528 0.0 101725
20 january, wed
wed2000:00−14˚wsw22950 0.0 101731
03:00−14˚wsw22968 0.0 101841
06:00−14˚wsw239770 0.0 101865
09:00−15˚wsw239679 0.1 101853
12:00−12˚wsw238822 0.0 1018172
15:00−10˚sw139011 0.0 1018171
18:00−13˚s22950 0.0 101822
21:00−13˚sse22940 0.0 101736
21 january, thu
thu2100:00−14˚sse23920 0.0 101641
03:00−15˚se239014 0.0 101568
06:00−13˚se2592100 0.0 1013145
09:00−12˚se2594100 0.1 1012190
12:00−9˚se2490100 0.1 1011324
15:00−8˚se2590100 0.1 1011361
18:00−9˚se369599 0.0 1010228
21:00−8˚se4794100 0.8 1009266